Regional Weather Roundup
Issued by NWS

Home | Current Version | Previous Version | Graphics & Text | Print | Product List | Glossary On
Versions: 1 2 3 4 5 6 7 8 9 10 11 12 13 14 15 16 17 18 19 20 21 22 23 24 25 26 27 28
000
ASUS45 KBOI 311110
RWRID

IDAHO REGIONAL WEATHER ROUNDUP
NATIONAL WEATHER SERVICE BOISE ID
500 AM MDT WED AUG 31 2016

NOTE: "FAIR" INDICATES FEW OR NO CLOUDS BELOW 12000 FEET
WITH NO SIGNIFICANT WEATHER AND/OR OBSTRUCTIONS TO VISIBILITY

IDZ012-014-311200-
SOUTHWEST IDAHO


CITY           SKY/WX    TMP DP  RH WIND       PRES   REMARKS
BOISE          MOCLDY    65  41  41 SW8       29.86S
CALDWELL       MOCLDY    58  45  62 S5        29.87R
MOUNTAIN HOME  MOCLDY    65  38  37 N2        29.89S
$$

IDZ016-017-311200-
SOUTHCENTRAL IDAHO


CITY           SKY/WX    TMP DP  RH WIND       PRES   REMARKS
BURLEY         MOCLDY    52  46  80 CALM      29.98S
JEROME         MOCLDY    61  38  42 E3        29.98S
TWIN FALLS     MOCLDY    63  33  32 S7        29.98S
$$

IDZ019>023-311200-
SOUTHEAST IDAHO


CITY           SKY/WX    TMP DP  RH WIND       PRES   REMARKS
IDAHO FALLS    CLOUDY    48  37  65 NW3       30.08S
POCATELLO      CLEAR     49  39  68 CALM      30.04R
REXBURG        CLOUDY    53  40  61 CALM      30.10S
$$

IDZ006-010-011-018-031-032-311200-
CENTRAL IDAHO MOUNTAINS


CITY           SKY/WX    TMP DP  RH WIND       PRES   REMARKS
MCCALL         CLOUDY    57  35  43 W7        30.05F
HAILEY         MOCLDY    59  34  38 NW10      30.10S
STANLEY          N/A     50  30  46 SE5       30.19S
SALMON         PTCLDY    61  36  39 CALM      30.00F
CHALLIS        PTCLDY    57  29  34 CALM      30.08S
$$

IDZ002-004-006-007-026-311200-
NORTHERN IDAHO


CITY           SKY/WX    TMP DP  RH WIND       PRES   REMARKS
LEWISTON       CLEAR     59  40  49 SE3       29.93S
LOWELL           N/A     56  50  80 CALM      29.98R
COEUR D`ALENE  CLEAR     61  48  63 S5        29.94S
MULLAN PASS    CLEAR     59  32  36 NW6       30.12F
$$




USA.gov is the U.S. government's official web portal to all federal, state and local government web resources and services.